User: anonymous   Login
Location: Unspecified
(0.0000°N, 0.0000°E)
Time: 02:41:04
(UTC+02:00)
Language:

ARIANE 5 R/B - Orbit

View from above orbital plane
View from above orbital plane
View from above satellite
View from above satellite

Ground track
Ground track

The orbit data is extracted from the following two-line orbital elements,

1 28379U 04027B   18111.57407215 -.00000175 +00000-0 +30735-3 0  9990
2 28379 006.4466 223.9231 7287142 278.5563 112.2298 02.07930292104549
Epoch (UTC): 21 April 2018 13:46:39
Eccentricity: 0.7287142
inclination: 6.4466°
perigee height: 656 km
apogee height: 38446 km
right ascension of ascending node: 223.9231°
argument of perigee: 278.5563°
revolutions per day: 2.07930292
mean anomaly at epoch: 112.2298°
orbit number at epoch: 10454

The dashed part of the orbit path shows where the satellite is in the earth's shadow,  

DLR